Location: Unspecified
(43.4680°N, 87.1740°E)
Time: 21:35:17
(UTC+00:00)

Cosmos 1553 Rocket - Pass Details

Date: 17 April 2021
Orbit: 942 x 1007 km, 82.9° (Epoch: 12 May)

Event Time Altitude Azimuth Distance (km) Brightness Sun altitude
Exits shadow 17:00:38 58° 359° (N) 1,094 4.4 -33.5°
Drops below altitude 10° 17:05:26 10° 7° (N) 2,673 7.0 -33.8°
Sets 17:07:57 0° 8° (N) 3,626 7.8 -33.9°
